Glenwood, MN

8:20 AM CST on November 21, 2017 (GMT -0600)
Glenwood Municipal

Weather History for KGHW - November, 2014

Change the Weather History Date:

Thursday, November 27, 2014

  Actual Average Record
Temperature  
Mean Temperature -2 °F -  
Max Temperature 6 °F 30 °F 57 °F (1998)
Min Temperature -9 °F 13 °F -16 °F (1985)
Degree Days  
Heating Degree Days 66    
Moisture  
Dew Point -6 °F    
Average Humidity 76    
Maximum Humidity 92    
Minimum Humidity 56    
Precipitation  
Precipitation 0.00 in - - ()
Sea Level Pressure  
Sea Level Pressure 30.37 in    
Wind  
Wind Speed 6 mph (SSE)    
Max Wind Speed 16 mph    
Max Gust Speed -    
Visibility 9 miles    
Events Snow    
Averages and records for this station are not official NWS values.
T = Trace of Precipitation, MM = Missing Value Source: NWS Daily Summary

Daily Weather History Graph

Daily Weather History Graph

Search for Another Location

Airport or City:

Trip Planner

Search our weather history database for the weather conditions in past years. The results will help you decide how hot, cold, wet, or windy it might be!

Date:

Astronomy

Nov. 27, 2014 Rise Set
Actual Time 7:36 AM CST 4:40 PM CST
Civil Twilight 7:03 AM CST 5:14 PM CST
Nautical Twilight 6:26 AM CST 5:51 PM CST
Astronomical Twilight 5:50 AM CST 6:26 PM CST
Moon 11:45 AM CST (11/27) 10:30 PM CST (11/27)
Length of Visible Light 10h 10m
Length of Day
9h 04m
Waxing Crescent, 31% of the Moon is Illuminated
Nov 27
Waxing Crescent
Nov 29
First Quarter
Dec 6
Full
Dec 14
Last Quarter
Dec 21
New

Hourly Weather History & Observations

Time (CST) Temp. Windchill Dew Point Humidity Pressure Visibility Wind Dir Wind Speed Gust Speed Precip Events Conditions
12:13 AM -2.2 °F -15.6 °F -7.6 °F 78% 30.46 in 10.0 mi NNW 6.9 mph - N/A   Clear
12:33 AM -4.0 °F -17.8 °F -7.6 °F 85% 30.46 in 10.0 mi NNW 6.9 mph - N/A   Clear
12:53 AM -4.0 °F -19.0 °F -9.4 °F 78% 30.46 in 10.0 mi NNW 8.1 mph - N/A   Clear
1:13 AM -4.0 °F -20.2 °F -9.4 °F 78% 30.47 in 10.0 mi NNW 9.2 mph - N/A   Clear
1:33 AM -5.8 °F -19.9 °F -9.4 °F 84% 30.47 in 10.0 mi NNW 6.9 mph - N/A   Clear
1:53 AM -5.8 °F -18.4 °F -9.4 °F 84% 30.47 in 10.0 mi NW 5.8 mph - N/A   Clear
2:13 AM -5.8 °F -19.9 °F -9.4 °F 84% 30.47 in 10.0 mi NNW 6.9 mph - N/A   Clear
2:33 AM -5.8 °F -19.9 °F -9.4 °F 84% 30.47 in 10.0 mi North 6.9 mph - N/A   Clear
2:53 AM -5.8 °F -18.4 °F -9.4 °F 84% 30.47 in 10.0 mi North 5.8 mph - N/A   Clear
3:13 AM -5.8 °F -18.4 °F -9.4 °F 84% 30.47 in 10.0 mi North 5.8 mph - N/A   Clear
3:33 AM -5.8 °F -18.4 °F -9.4 °F 84% 30.47 in 10.0 mi North 5.8 mph - N/A   Clear
3:53 AM -7.6 °F - -11.2 °F 84% 30.48 in 10.0 mi Calm Calm - N/A   Clear
4:13 AM -7.6 °F - -9.4 °F 92% 30.47 in 10.0 mi Calm Calm - N/A   Clear
4:33 AM -5.8 °F -14.5 °F -9.4 °F 84% 30.48 in 10.0 mi NNW 3.5 mph - N/A   Clear
4:53 AM -7.6 °F -16.5 °F -11.2 °F 84% 30.47 in 10.0 mi NNW 3.5 mph - N/A   Clear
5:13 AM -7.6 °F - -11.2 °F 84% 30.48 in 10.0 mi Calm Calm - N/A   Clear
5:33 AM -7.6 °F -18.8 °F -11.2 °F 84% 30.49 in 10.0 mi West 4.6 mph - N/A   Clear
5:53 AM -7.6 °F -16.5 °F -11.2 °F 84% 30.48 in 10.0 mi WNW 3.5 mph - N/A   Clear
6:13 AM -7.6 °F -16.5 °F -11.2 °F 84% 30.48 in 10.0 mi West 3.5 mph - N/A   Clear
6:33 AM -9.4 °F -20.9 °F -13.0 °F 84% 30.48 in 10.0 mi West 4.6 mph - N/A   Clear
6:53 AM -9.4 °F -20.9 °F -14.8 °F 77% 30.48 in 10.0 mi West 4.6 mph - N/A   Clear
7:13 AM -9.4 °F -20.9 °F -13.0 °F 84% 30.48 in 10.0 mi West 4.6 mph - N/A   Clear
7:33 AM -9.4 °F -18.6 °F -13.0 °F 84% 30.48 in 10.0 mi West 3.5 mph - N/A   Clear
7:53 AM -9.4 °F -18.6 °F -13.0 °F 84% 30.48 in 10.0 mi West 3.5 mph - N/A   Clear
8:13 AM -7.6 °F -16.5 °F -13.0 °F 77% 30.48 in 10.0 mi West 3.5 mph - N/A   Clear
8:33 AM -7.6 °F - -11.2 °F 84% 30.48 in 10.0 mi Calm Calm - N/A   Clear
8:53 AM -7.6 °F -18.8 °F -11.2 °F 84% 30.48 in 10.0 mi WNW 4.6 mph - N/A   Clear
9:13 AM -5.8 °F -14.5 °F -9.4 °F 84% 30.48 in 10.0 mi NW 3.5 mph - N/A   Clear
9:33 AM -4.0 °F - -7.6 °F 85% 30.48 in 10.0 mi Calm Calm - N/A   Clear
9:53 AM -2.2 °F - -7.6 °F 78% 30.48 in 10.0 mi Calm Calm - N/A   Clear
10:13 AM -2.2 °F - -7.6 °F 78% 30.47 in 10.0 mi Calm Calm - N/A   Clear
10:33 AM -0.4 °F - -5.8 °F 78% 30.47 in 10.0 mi Calm Calm - N/A   Clear
10:53 AM 1.4 °F - -5.8 °F 72% 30.46 in 10.0 mi Calm Calm - N/A   Clear
11:13 AM 3.2 °F - -5.8 °F 66% 30.45 in 10.0 mi Calm Calm - N/A   Clear
11:33 AM 3.2 °F - -5.8 °F 66% 30.43 in 10.0 mi Calm Calm - N/A   Clear
11:53 AM 3.2 °F -4.2 °F -7.6 °F 61% 30.41 in 10.0 mi ESE 3.5 mph - N/A   Clear
12:13 PM 5.0 °F - -5.8 °F 61% 30.41 in 10.0 mi Calm Calm - N/A   Clear
12:33 PM 5.0 °F -2.1 °F -5.8 °F 61% 30.41 in 10.0 mi SE 3.5 mph - N/A   Clear
12:53 PM 5.0 °F -4.1 °F -5.8 °F 61% 30.40 in 10.0 mi SSE 4.6 mph - N/A   Clear
1:13 PM 6.8 °F -2.0 °F -5.8 °F 56% 30.39 in 10.0 mi South 4.6 mph - N/A   Clear
1:33 PM 6.8 °F -5.9 °F -5.8 °F 56% 30.38 in 10.0 mi South 8.1 mph - N/A   Clear
1:53 PM 6.8 °F -2.0 °F -5.8 °F 56% 30.38 in 10.0 mi South 4.6 mph - N/A   Clear
2:13 PM 6.8 °F -4.8 °F -2.2 °F 67% 30.37 in 10.0 mi South 6.9 mph - N/A   Clear
2:33 PM 6.8 °F -5.9 °F -5.8 °F 56% 30.36 in 10.0 mi South 8.1 mph - N/A   Clear
2:53 PM 5.0 °F -6.9 °F -4.0 °F 66% 30.35 in 10.0 mi SSE 6.9 mph - N/A   Clear
3:13 PM 5.0 °F -5.6 °F -2.2 °F 72% 30.35 in 10.0 mi SSE 5.8 mph - N/A   Clear
3:33 PM 5.0 °F -4.1 °F -2.2 °F 72% 30.35 in 10.0 mi South 4.6 mph - N/A   Scattered Clouds
3:53 PM 3.2 °F -10.3 °F -2.2 °F 78% 30.34 in 10.0 mi South 8.1 mph - N/A   Mostly Cloudy
4:13 PM 3.2 °F -9.1 °F -2.2 °F 78% 30.32 in 10.0 mi SSE 6.9 mph - N/A   Scattered Clouds
4:33 PM 5.0 °F -6.9 °F -2.2 °F 72% 30.31 in 10.0 mi SSE 6.9 mph - N/A   Mostly Cloudy
4:53 PM 5.0 °F -6.9 °F -2.2 °F 72% 30.30 in 10.0 mi SE 6.9 mph - N/A   Overcast
5:13 PM 5.0 °F -8.1 °F -2.2 °F 72% 30.28 in 10.0 mi SE 8.1 mph - N/A   Overcast
5:33 PM 5.0 °F -10.0 °F -2.2 °F 72% 30.28 in 10.0 mi SE 10.4 mph - N/A   Mostly Cloudy
5:53 PM 5.0 °F -10.0 °F -2.2 °F 72% 30.27 in 10.0 mi SE 10.4 mph - N/A   Clear
6:13 PM 5.0 °F -10.0 °F -2.2 °F 72% 30.27 in 10.0 mi SE 10.4 mph - N/A   Clear
6:33 PM 5.0 °F -10.8 °F -2.2 °F 72% 30.26 in 10.0 mi SE 11.5 mph - N/A   Scattered Clouds
6:53 PM 5.0 °F -10.8 °F -2.2 °F 72% 30.25 in 10.0 mi SE 11.5 mph - N/A   Overcast
7:13 PM 5.0 °F -10.8 °F -2.2 °F 72% 30.24 in 10.0 mi SE 11.5 mph - N/A   Overcast
7:33 PM 5.0 °F -11.6 °F -4.0 °F 66% 30.23 in 10.0 mi SE 12.7 mph - N/A   Scattered Clouds
7:53 PM 5.0 °F -10.0 °F -4.0 °F 66% 30.23 in 10.0 mi SE 10.4 mph - N/A   Scattered Clouds
8:13 PM 5.0 °F -10.8 °F -4.0 °F 66% 30.22 in 7.0 mi SE 11.5 mph - N/A Snow Light Snow
8:33 PM 5.0 °F -9.1 °F -2.2 °F 72% 30.21 in 5.0 mi SE 9.2 mph - N/A Snow Light Snow
8:53 PM 5.0 °F -9.1 °F -0.4 °F 78% 30.22 in 2.5 mi SE 9.2 mph - N/A Snow Light Snow
9:13 PM 5.0 °F -10.0 °F -0.4 °F 78% 30.22 in 3.0 mi ESE 10.4 mph - N/A Snow Light Snow
9:33 PM 5.0 °F -9.1 °F -0.4 °F 78% 30.20 in 1.5 mi ESE 9.2 mph - N/A Snow Light Snow
9:53 PM 5.0 °F -10.0 °F 1.4 °F 85% 30.19 in 1.2 mi ESE 10.4 mph - N/A Snow Light Snow
10:13 PM 5.0 °F -11.6 °F 1.4 °F 85% 30.19 in 1.8 mi ESE 12.7 mph - N/A Snow Light Snow
10:33 PM 5.0 °F -12.3 °F 1.4 °F 85% 30.16 in 1.8 mi ESE 13.8 mph - N/A Snow Light Snow
10:53 PM 5.0 °F -12.3 °F 1.4 °F 85% 30.15 in 1.0 mi ESE 13.8 mph - N/A Snow Snow
11:13 PM 5.0 °F -10.8 °F 1.4 °F 85% 30.15 in 1.5 mi ESE 11.5 mph - N/A Snow Light Snow
11:33 PM 5.0 °F -12.3 °F 1.4 °F 85% 30.14 in 1.8 mi ESE 13.8 mph - N/A Snow Light Snow
11:53 PM 5.0 °F -13.6 °F 1.4 °F 85% 30.11 in 2.5 mi ESE 16.1 mph - N/A Snow Light Snow